Location: Newark
(29.9790°N, 31.1340°E)
Time: 14:13:38
(UTC+00:00)

Vanguard 1 - Visible Passes

Search period start: 26 January 2020 00:00
Search period end: 05 February 2020 00:00
Orbit: 651 x 3833 km, 34.2° (Epoch: 25 January)

Date Brightness Start Highest point End Pass type
(mag) Time Alt. Az. Time Alt. Az. Time Alt. Az.
26 Jan 10.5 17:59:39 10° WNW 18:03:16 52° WNW 18:03:16 52° WNW visible
27 Jan 9.7 16:01:01 10° WNW 16:05:20 52° N 16:10:29 12° E visible
27 Jan 11.2 18:20:33 10° WNW 18:23:12 34° W 18:23:12 34° W visible
28 Jan 9.6 16:22:01 10° WNW 16:26:25 58° N 16:30:27 19° E visible
28 Jan 11.9 18:41:30 10° W 18:43:11 22° W 18:43:11 22° W visible
29 Jan 9.5 16:42:58 10° WNW 16:47:27 70° NNE 16:50:27 28° E visible
29 Jan 12.4 19:02:34 10° W 19:03:11 14° W 19:03:11 14° W visible
30 Jan 9.5 17:03:52 10° WNW 17:08:27 89° NNE 17:10:30 41° ESE visible
31 Jan 9.8 17:24:48 10° WNW 17:29:25 68° SSW 17:30:36 53° SE visible
01 Feb 10.3 17:45:49 10° W 17:50:25 48° SSW 17:50:45 47° SSW visible
02 Feb 11.1 18:06:59 10° W 18:10:56 32° SW 18:10:56 32° SW visible
03 Feb 9.3 16:07:50 10° WNW 16:12:15 86° SSW 16:17:31 10° ESE visible
03 Feb 11.8 18:28:29 10° WSW 18:31:12 21° SW 18:31:12 21° SW visible
04 Feb 9.7 16:28:51 10° WNW 16:33:11 60° SSW 16:38:32 10° ESE visible
04 Feb 12.4 18:50:40 10° WSW 18:51:33 12° SW 18:51:33 12° SW visible
